カタログに戻る

COSMOS 1249 COOLANT

運用中LEO
NORAD 26512·DEBRIS·🇷🇺 Russia

打ち上げ Mar 5, 1981 から Baikonur Cosmodrome

Loading…

次のパス (今後24時間)

TLE

古いSource: Space-Track

元期: Sep 2, 2026, 08:10 UTC

1 26512U 81021P   26245.34079465  .00000088  00000-0  13602-3 0  9996
2 26512  64.9642  87.3983 0056863 223.3573 315.5641 13.92839134664329

AllMySatでCOSMOS 1249 COOLANTをリアルタイム追跡

Download on the App Store